| time (UTC) | temp C | wind direction | speed KPH | gust KPH | rain 1hr cm | rain 24hr cm | rain mn cm | humidity % | barometer mb |
| 20260507114000 | 1 | 196 | 4.8 | 8.0 | 0.00 | 0.08 | 0.00 | 91 | 1014.3 |
| 20260507113500 | 2 | 200 | 3.2 | 6.4 | 0.00 | 0.08 | 0.00 | 91 | 1014.4 |
| 20260507113000 | 2 | 257 | 3.2 | 4.8 | 0.00 | 0.08 | 0.00 | 91 | 1014.4 |
| 20260507112500 | 2 | 259 | 1.6 | 6.4 | 0.00 | 0.08 | 0.00 | 91 | 1014.3 |
| 20260507111959 | 2 | 259 | 3.2 | 6.4 | 0.00 | 0.08 | 0.00 | 91 | 1014.5 |
| 20260507111459 | 2 | 259 | 4.8 | 6.4 | 0.00 | 0.08 | 0.00 | 91 | 1014.7 |
| 20260507111000 | 2 | 255 | 4.8 | 6.4 | 0.00 | 0.08 | 0.00 | 90 | 1014.6 |
| 20260507110500 | 2 | 250 | 4.8 | 6.4 | 0.00 | 0.08 | 0.00 | 90 | 1014.5 |
| 20260507110002 | 2 | 248 | 3.2 | 6.4 | 0.00 | 0.08 | 0.00 | 91 | 1014.5 |
| 20260507105500 | 2 | 230 | 6.4 | 8.0 | 0.00 | 0.08 | 0.00 | 90 | 1014.7 |
| 20260507105000 | 2 | 256 | 6.4 | 8.0 | 0.00 | 0.08 | 0.00 | 90 | 1014.8 |
| 20260507104459 | 2 | 256 | 4.8 | 8.0 | 0.00 | 0.08 | 0.00 | 90 | 1014.8 |
| 20260507103959 | 2 | 254 | 4.8 | 8.0 | 0.00 | 0.08 | 0.00 | 90 | 1014.8 |
| 20260507103500 | 2 | 258 | 4.8 | 6.4 | 0.00 | 0.08 | 0.00 | 90 | 1014.9 |
| 20260507102959 | 2 | 252 | 4.8 | 9.7 | 0.00 | 0.08 | 0.00 | 89 | 1014.9 |
| 20260507102459 | 3 | 250 | 4.8 | 11.3 | 0.00 | 0.08 | 0.00 | 89 | 1015.0 |
| 20260507102000 | 3 | 251 | 4.8 | 12.9 | 0.00 | 0.08 | 0.00 | 90 | 1015.0 |
| 20260507101459 | 3 | 258 | 9.7 | 12.9 | 0.00 | 0.08 | 0.00 | 89 | 1015.2 |
| 20260507101000 | 3 | 255 | 8.0 | 12.9 | 0.00 | 0.08 | 0.00 | 89 | 1015.2 |
| 20260507100002 | 3 | 257 | 6.4 | 16.1 | 0.00 | 0.08 | 0.00 | 89 | 1015.2 |
| 20260507095500 | 3 | 265 | 9.7 | 16.1 | 0.00 | 0.08 | 0.00 | 89 | 1015.1 |
| 20260507094459 | 3 | 238 | 9.7 | 16.1 | 0.00 | 0.08 | 0.00 | 90 | 1015.2 |
| 20260507093500 | 3 | 259 | 9.7 | 12.9 | 0.00 | 0.08 | 0.00 | 89 | 1015.3 |
| 20260507093000 | 3 | 252 | 6.4 | 14.5 | 0.00 | 0.08 | 0.00 | 89 | 1015.4 |
| 20260507092459 | 3 | 244 | 4.8 | 14.5 | 0.00 | 0.08 | 0.00 | 90 | 1015.5 |
| 20260507091959 | 3 | 239 | 8.0 | 11.3 | 0.00 | 0.08 | 0.00 | 90 | 1015.5 |
| 20260507091000 | 3 | 234 | 8.0 | 12.9 | 0.00 | 0.08 | 0.00 | 89 | 1015.6 |
| 20260507090002 | 3 | 248 | 4.8 | 12.9 | 0.00 | 0.08 | 0.00 | 89 | 1015.6 |
| 20260507085459 | 3 | 227 | 8.0 | 12.9 | 0.00 | 0.08 | 0.00 | 89 | 1015.6 |
| 20260507085000 | 3 | 232 | 6.4 | 14.5 | 0.00 | 0.08 | 0.00 | 89 | 1015.7 |
| 20260507084500 | 4 | 229 | 6.4 | 14.5 | 0.00 | 0.08 | 0.00 | 89 | 1015.9 |
| 20260507083959 | 4 | 229 | 8.0 | 14.5 | 0.00 | 0.08 | 0.00 | 89 | 1016.1 |
| 20260507083459 | 3 | 221 | 8.0 | 16.1 | 0.00 | 0.08 | 0.00 | 89 | 1016.1 |
| 20260507082959 | 3 | 248 | 6.4 | 16.1 | 0.00 | 0.08 | 0.00 | 89 | 1016.1 |
| 20260507081959 | 3 | 236 | 4.8 | 12.9 | 0.00 | 0.08 | 0.00 | 89 | 1016.3 |
| 20260507081459 | 3 | 265 | 11.3 | 14.5 | 0.00 | 0.08 | 0.00 | 89 | 1016.4 |
| 20260507080500 | 3 | 244 | 4.8 | 11.3 | 0.00 | 0.08 | 0.00 | 89 | 1016.4 |
| 20260507080002 | 4 | 244 | 4.8 | 12.9 | 0.00 | 0.08 | 0.00 | 89 | 1016.5 |
| 20260507075500 | 4 | 250 | 6.4 | 12.9 | 0.00 | 0.08 | 0.00 | 89 | 1016.5 |
| 20260507074459 | 4 | 227 | 6.4 | 14.5 | 0.00 | 0.08 | 0.00 | 88 | 1016.6 |
| 20260507074000 | 4 | 251 | 6.4 | 14.5 | 0.00 | 0.08 | 0.00 | 88 | 1016.7 |
| 20260507073500 | 5 | 234 | 6.4 | 14.5 | 0.00 | 0.08 | 0.00 | 88 | 1016.7 |
| 20260507072959 | 5 | 248 | 6.4 | 12.9 | 0.00 | 0.08 | 0.00 | 88 | 1016.7 |
| 20260507071959 | 5 | 244 | 4.8 | 14.5 | 0.00 | 0.08 | 0.00 | 87 | 1016.8 |
| 20260507071459 | 5 | 249 | 6.4 | 14.5 | 0.00 | 0.08 | 0.00 | 87 | 1016.9 |
| 20260507071000 | 5 | 243 | 9.7 | 11.3 | 0.00 | 0.08 | 0.00 | 87 | 1017.0 |
| 20260507070003 | 5 | 250 | 12.9 | 14.5 | 0.00 | 0.08 | 0.00 | 87 | 1017.2 |
| 20260507065500 | 5 | 256 | 8.0 | 14.5 | 0.00 | 0.10 | 0.00 | 87 | 1017.3 |
| 20260507064500 | 5 | 257 | 8.0 | 17.7 | 0.00 | 0.10 | 0.00 | 87 | 1017.4 |
| 20260507064000 | 6 | 258 | 9.7 | 17.7 | 0.00 | 0.10 | 0.00 | 87 | 1017.4 |
| 20260507063459 | 6 | 252 | 8.0 | 19.3 | 0.00 | 0.10 | 0.00 | 87 | 1017.4 |
| 20260507062500 | 5 | 244 | 12.9 | 14.5 | 0.00 | 0.10 | 0.00 | 87 | 1017.5 |
| 20260507061959 | 5 | 251 | 6.4 | 14.5 | 0.00 | 0.10 | 0.00 | 87 | 1017.5 |
| 20260507061459 | 5 | 257 | 4.8 | 11.3 | 0.00 | 0.10 | 0.00 | 87 | 1017.5 |
| 20260507061000 | 5 | 257 | 6.4 | 11.3 | 0.00 | 0.10 | 0.00 | 86 | 1017.5 |
| 20260507055501 | 6 | 269 | 4.8 | 17.7 | 0.00 | 0.25 | 0.00 | 86 | 1017.7 |
| 20260507055001 | 6 | 255 | 4.8 | 17.7 | 0.00 | 0.25 | 0.00 | 85 | 1017.6 |
| 20260507054500 | 6 | 253 | 12.9 | 17.7 | 0.00 | 0.25 | 0.00 | 85 | 1017.5 |
| 20260507054001 | 6 | 248 | 12.9 | 17.7 | 0.00 | 0.25 | 0.00 | 85 | 1017.5 |
| 20260507053501 | 6 | 250 | 11.3 | 17.7 | 0.00 | 0.25 | 0.00 | 85 | 1017.4 |
| 20260507053000 | 6 | 258 | 16.1 | 20.9 | 0.00 | 0.25 | 0.00 | 85 | 1017.4 |
| 20260507052501 | 6 | 240 | 9.7 | 20.9 | 0.00 | 0.25 | 0.00 | 85 | 1017.5 |
| 20260507052001 | 6 | 252 | 14.5 | 24.1 | 0.00 | 0.25 | 0.00 | 85 | 1017.4 |
| 20260507051000 | 6 | 252 | 12.9 | 22.5 | 0.00 | 0.25 | 0.00 | 85 | 1017.4 |
| 20260507050501 | 6 | 253 | 14.5 | 22.5 | 0.00 | 0.25 | 0.00 | 86 | 1017.5 |
| 20260507050005 | 6 | 252 | 14.5 | 20.9 | 0.00 | 0.25 | 0.00 | 86 | 1017.6 |
| 20260507045501 | 6 | 222 | 11.3 | 17.7 | 0.00 | 0.33 | 0.25 | 86 | 1017.6 |
| 20260507045001 | 6 | 218 | 8.0 | 12.9 | 0.00 | 0.33 | 0.25 | 86 | 1017.7 |
| 20260507044000 | 6 | 246 | 8.0 | 14.5 | 0.00 | 0.33 | 0.25 | 85 | 1018.0 |
| 20260507043001 | 6 | 246 | 8.0 | 14.5 | 0.00 | 0.33 | 0.25 | 85 | 1018.0 |
| 20260507042500 | 6 | 247 | 11.3 | 16.1 | 0.00 | 0.33 | 0.25 | 85 | 1018.1 |
| 20260507041500 | 6 | 247 | 8.0 | 12.9 | 0.00 | 0.33 | 0.25 | 85 | 1018.1 |
| 20260507041001 | 6 | 250 | 4.8 | 11.3 | 0.00 | 0.33 | 0.25 | 86 | 1018.2 |
| 20260507040500 | 6 | 242 | 4.8 | 8.0 | 0.00 | 0.33 | 0.25 | 85 | 1018.2 |
| 20260507040005 | 6 | 243 | 4.8 | 8.0 | 0.00 | 0.33 | 0.25 | 85 | 1018.1 |
| 20260507035500 | 6 | 244 | 4.8 | 8.0 | 0.00 | 0.41 | 0.25 | 84 | 1018.1 |
| 20260507035001 | 6 | 247 | 4.8 | 8.0 | 0.00 | 0.41 | 0.25 | 84 | 1018.2 |
| 20260507034501 | 6 | 255 | 4.8 | 11.3 | 0.00 | 0.41 | 0.25 | 83 | 1018.3 |
| 20260507033501 | 7 | 237 | 4.8 | 11.3 | 0.00 | 0.41 | 0.25 | 83 | 1018.3 |
| 20260507033000 | 7 | 246 | 6.4 | 11.3 | 0.00 | 0.41 | 0.25 | 84 | 1018.2 |
| 20260507032501 | 7 | 246 | 4.8 | 11.3 | 0.00 | 0.41 | 0.25 | 83 | 1018.2 |
| 20260507031501 | 7 | 246 | 4.8 | 11.3 | 0.00 | 0.41 | 0.25 | 82 | 1018.2 |
| 20260507031000 | 7 | 246 | 6.4 | 11.3 | 0.00 | 0.41 | 0.25 | 82 | 1018.2 |
| 20260507030500 | 7 | 253 | 6.4 | 11.3 | 0.00 | 0.41 | 0.25 | 83 | 1018.2 |
| 20260507025500 | 7 | 261 | 9.7 | 12.9 | 0.00 | 0.41 | 0.25 | 83 | 1018.3 |
| 20260507025001 | 7 | 246 | 6.4 | 12.9 | 0.00 | 0.41 | 0.25 | 83 | 1018.3 |
| 20260507024001 | 7 | 248 | 6.4 | 12.9 | 0.00 | 0.41 | 0.25 | 83 | 1018.2 |
| 20260507023501 | 7 | 255 | 6.4 | 8.0 | 0.00 | 0.41 | 0.25 | 82 | 1018.2 |
| 20260507023000 | 7 | 240 | 3.2 | 8.0 | 0.00 | 0.41 | 0.25 | 82 | 1018.1 |
| 20260507022500 | 7 | 237 | 3.2 | 8.0 | 0.00 | 0.41 | 0.25 | 82 | 1018.1 |
| 20260507022001 | 7 | 234 | 6.4 | 9.7 | 0.00 | 0.41 | 0.25 | 81 | 1017.9 |
| 20260507021501 | 7 | 229 | 6.4 | 11.3 | 0.00 | 0.41 | 0.25 | 81 | 1017.9 |
| 20260507021000 | 7 | 225 | 9.7 | 11.3 | 0.00 | 0.41 | 0.25 | 81 | 1017.8 |
| 20260507020501 | 8 | 219 | 8.0 | 9.7 | 0.00 | 0.41 | 0.25 | 80 | 1017.9 |
| 20260507020003 | 8 | 224 | 8.0 | 9.7 | 0.00 | 0.41 | 0.25 | 80 | 1017.9 |
| 20260507015500 | 8 | 227 | 6.4 | 9.7 | 0.00 | 0.41 | 0.25 | 80 | 1017.9 |
| 20260507015000 | 8 | 230 | 6.4 | 9.7 | 0.00 | 0.41 | 0.25 | 79 | 1018.0 |
| 20260507014501 | 8 | 233 | 8.0 | 9.7 | 0.00 | 0.41 | 0.25 | 79 | 1017.8 |
| 20260507014000 | 8 | 225 | 6.4 | 8.0 | 0.00 | 0.41 | 0.25 | 80 | 1017.8 |
| 20260507013500 | 8 | 234 | 4.8 | 6.4 | 0.00 | 0.41 | 0.25 | 80 | 1017.8 |
| 20260507013000 | 9 | 225 | 4.8 | 6.4 | 0.00 | 0.41 | 0.25 | 79 | 1017.8 |
| 20260507012502 | 10 | 236 | 3.2 | 8.0 | 0.00 | 0.41 | 0.25 | 78 | 1017.8 |
| 20260507011500 | 10 | 244 | 4.8 | 8.0 | 0.00 | 0.41 | 0.25 | 76 | 1018.0 |
| 20260507010500 | 10 | 249 | 6.4 | 11.3 | 0.00 | 0.41 | 0.25 | 75 | 1017.9 |
| 20260507010003 | 10 | 255 | 6.4 | 12.9 | 0.00 | 0.41 | 0.25 | 74 | 1017.9 |
| 20260507005500 | 10 | 259 | 6.4 | 12.9 | 0.00 | 0.41 | 0.25 | 74 | 1018.0 |
| 20260507005000 | 11 | 258 | 9.7 | 12.9 | 0.00 | 0.41 | 0.25 | 75 | 1018.0 |
| 20260507004000 | 10 | 173 | 3.2 | 8.0 | 0.00 | 0.41 | 0.25 | 83 | 1017.9 |
| 20260507003501 | 10 | 173 | 8.0 | 8.0 | 0.00 | 0.41 | 0.25 | 81 | 1017.9 |
| 20260507003000 | 10 | 170 | 6.4 | 8.0 | 0.00 | 0.41 | 0.25 | 78 | 1017.8 |
| 20260507002501 | 10 | 169 | 6.4 | 8.0 | 0.00 | 0.41 | 0.25 | 78 | 1018.0 |
| 20260507002000 | 10 | 159 | 8.0 | 11.3 | 0.00 | 0.41 | 0.25 | 78 | 1018.0 |
| 20260507000500 | 11 | 165 | 3.2 | 11.3 | 0.03 | 0.41 | 0.25 | 77 | 1018.0 |
| 20260507000003 | 10 | 150 | 4.8 | 11.3 | 0.03 | 0.41 | 0.25 | 77 | 1018.0 |
| 20260506235000 | 11 | 163 | 9.7 | 11.3 | 0.03 | 0.41 | 0.25 | 78 | 1018.1 |
| 20260506234500 | 11 | 188 | 8.0 | 11.3 | 0.03 | 0.41 | 0.25 | 77 | 1018.1 |
| 20260506234000 | 10 | 187 | 8.0 | 9.7 | 0.03 | 0.41 | 0.25 | 76 | 1018.1 |
| 20260506233500 | 10 | 184 | 6.4 | 19.3 | 0.03 | 0.41 | 0.25 | 79 | 1018.2 |
| 20260506233000 | 10 | 178 | 9.7 | 19.3 | 0.03 | 0.41 | 0.25 | 81 | 1018.1 |
| 20260506232501 | 10 | 177 | 16.1 | 17.7 | 0.03 | 0.41 | 0.25 | 81 | 1018.0 |
| 20260506232000 | 9 | 174 | 11.3 | 14.5 | 0.03 | 0.41 | 0.25 | 81 | 1018.1 |
| 20260506231459 | 10 | 198 | 9.7 | 14.5 | 0.00 | 0.38 | 0.23 | 79 | 1018.2 |
| 20260506231001 | 10 | 196 | 9.7 | 17.7 | 0.00 | 0.38 | 0.23 | 78 | 1018.1 |
| 20260506230500 | 10 | 217 | 12.9 | 17.7 | 0.00 | 0.38 | 0.23 | 77 | 1018.2 |
| 20260506230003 | 10 | 212 | 16.1 | 19.3 | 0.00 | 0.38 | 0.23 | 75 | 1018.3 |
| 20260506225500 | 10 | 211 | 12.9 | 22.5 | 0.00 | 0.38 | 0.23 | 72 | 1018.2 |
| 20260506225000 | 11 | 207 | 17.7 | 22.5 | 0.00 | 0.38 | 0.23 | 70 | 1018.3 |
| 20260506224000 | 12 | 273 | 14.5 | 14.5 | 0.00 | 0.38 | 0.23 | 62 | 1018.1 |
| 20260506223501 | 12 | 273 | 6.4 | 9.7 | 0.00 | 0.38 | 0.23 | 60 | 1018.1 |
| 20260506223000 | 12 | 276 | 4.8 | 9.7 | 0.00 | 0.38 | 0.23 | 60 | 1018.2 |
| 20260506222500 | 12 | 266 | 3.2 | 14.5 | 0.00 | 0.38 | 0.23 | 60 | 1018.2 |
| 20260506222001 | 12 | 279 | 11.3 | 17.7 | 0.00 | 0.38 | 0.23 | 60 | 1018.3 |
| 20260506221501 | 12 | 284 | 12.9 | 17.7 | 0.00 | 0.38 | 0.23 | 59 | 1018.2 |
| 20260506221001 | 12 | 265 | 11.3 | 16.1 | 0.00 | 0.38 | 0.23 | 59 | 1018.3 |
| 20260506220501 | 12 | 259 | 9.7 | 17.7 | 0.00 | 0.38 | 0.23 | 57 | 1018.3 |
| 20260506220003 | 12 | 263 | 16.1 | 17.7 | 0.00 | 0.38 | 0.23 | 58 | 1018.3 |
| 20260506215501 | 12 | 244 | 8.0 | 17.7 | 0.00 | 0.38 | 0.23 | 57 | 1018.4 |
| 20260506215000 | 12 | 258 | 16.1 | 24.1 | 0.00 | 0.38 | 0.23 | 56 | 1018.4 |
| 20260506214500 | 12 | 247 | 14.5 | 25.7 | 0.00 | 0.38 | 0.23 | 56 | 1018.4 |
| 20260506214000 | 12 | 246 | 17.7 | 20.9 | 0.00 | 0.38 | 0.23 | 56 | 1018.4 |
| 20260506213501 | 12 | 211 | 11.3 | 16.1 | 0.00 | 0.38 | 0.23 | 56 | 1018.4 |
| 20260506213000 | 12 | 223 | 11.3 | 25.7 | 0.00 | 0.38 | 0.23 | 59 | 1018.4 |
| 20260506212501 | 12 | 217 | 14.5 | 25.7 | 0.00 | 0.38 | 0.23 | 57 | 1018.5 |
| 20260506211500 | 13 | 219 | 20.9 | 25.7 | 0.00 | 0.38 | 0.23 | 60 | 1018.5 |
| 20260506211000 | 13 | 281 | 3.2 | 17.7 | 0.00 | 0.38 | 0.23 | 54 | 1018.6 |
| 20260506210500 | 12 | 198 | 8.0 | 17.7 | 0.00 | 0.38 | 0.23 | 60 | 1018.7 |
| 20260506205500 | 13 | 236 | 14.5 | 22.5 | 0.00 | 0.38 | 0.23 | 54 | 1018.8 |
| 20260506205000 | 13 | 248 | 6.4 | 25.7 | 0.00 | 0.38 | 0.23 | 54 | 1018.8 |
| 20260506204500 | 13 | 259 | 1.6 | 25.7 | 0.00 | 0.38 | 0.23 | 52 | 1018.9 |
| 20260506204001 | 15 | 246 | 8.0 | 22.5 | 0.00 | 0.38 | 0.23 | 53 | 1018.9 |
| 20260506203501 | 12 | 281 | 14.5 | 14.5 | 0.00 | 0.38 | 0.23 | 56 | 1019.0 |
| 20260506203000 | 12 | 248 | 6.4 | 14.5 | 0.00 | 0.38 | 0.23 | 54 | 1019.1 |
| 20260506202500 | 13 | 278 | 4.8 | 14.5 | 0.00 | 0.38 | 0.23 | 48 | 1019.0 |
| 20260506202001 | 14 | 238 | 3.2 | 19.3 | 0.00 | 0.38 | 0.23 | 52 | 1019.0 |
| 20260506201500 | 13 | 301 | 3.2 | 19.3 | 0.00 | 0.38 | 0.23 | 51 | 1019.2 |
| 20260506201001 | 13 | 248 | 6.4 | 16.1 | 0.00 | 0.38 | 0.23 | 55 | 1019.1 |
| 20260506200500 | 12 | 268 | 9.7 | 16.1 | 0.00 | 0.38 | 0.23 | 57 | 1019.3 |
| 20260506200003 | 13 | 223 | 8.0 | 22.5 | 0.00 | 0.38 | 0.23 | 53 | 1019.4 |
| 20260506195500 | 13 | 236 | 6.4 | 22.5 | 0.00 | 0.38 | 0.23 | 58 | 1019.6 |
| 20260506195000 | 13 | 259 | 6.4 | 17.7 | 0.00 | 0.38 | 0.23 | 51 | 1019.5 |
| 20260506194501 | 13 | 272 | 12.9 | 14.5 | 0.00 | 0.38 | 0.23 | 51 | 1019.5 |
| 20260506193501 | 13 | 238 | 6.4 | 19.3 | 0.00 | 0.38 | 0.23 | 53 | 1019.5 |
| 20260506192500 | 12 | 241 | 4.8 | 19.3 | 0.00 | 0.38 | 0.23 | 50 | 1019.7 |
| 20260506192000 | 13 | 224 | 11.3 | 19.3 | 0.00 | 0.38 | 0.23 | 54 | 1019.7 |
| 20260506191500 | 12 | 246 | 11.3 | 12.9 | 0.00 | 0.38 | 0.23 | 55 | 1019.8 |
| 20260506191000 | 12 | 234 | 8.0 | 11.3 | 0.00 | 0.38 | 0.23 | 54 | 1019.8 |
| 20260506190003 | 12 | 208 | 6.4 | 14.5 | 0.00 | 0.38 | 0.23 | 56 | 1019.8 |
| 20260506185501 | 12 | 258 | 4.8 | 12.9 | 0.00 | 0.46 | 0.23 | 51 | 1019.8 |
| 20260506185000 | 12 | 220 | 8.0 | 19.3 | 0.00 | 0.46 | 0.23 | 53 | 1020.0 |
| 20260506184500 | 12 | 264 | 3.2 | 19.3 | 0.00 | 0.46 | 0.23 | 55 | 1020.2 |
| 20260506184000 | 11 | 235 | 4.8 | 12.9 | 0.00 | 0.46 | 0.23 | 54 | 1020.2 |
| 20260506183500 | 11 | 242 | 6.4 | 11.3 | 0.00 | 0.46 | 0.23 | 55 | 1020.3 |
| 20260506182500 | 11 | 222 | 8.0 | 12.9 | 0.00 | 0.46 | 0.23 | 56 | 1020.4 |
| 20260506182000 | 12 | 294 | 8.0 | 12.9 | 0.00 | 0.46 | 0.23 | 54 | 1020.4 |
| 20260506181500 | 11 | 215 | 1.6 | 11.3 | 0.00 | 0.46 | 0.23 | 54 | 1020.6 |
| 20260506181000 | 11 | 186 | 4.8 | 12.9 | 0.00 | 0.46 | 0.23 | 55 | 1020.7 |
| 20260506180500 | 11 | 221 | 8.0 | 16.1 | 0.00 | 0.46 | 0.23 | 55 | 1020.6 |
| 20260506175500 | 12 | 219 | 9.7 | 12.9 | 0.00 | 0.46 | 0.23 | 57 | 1020.7 |
| 20260506175001 | 11 | 216 | 6.4 | 12.9 | 0.00 | 0.46 | 0.23 | 54 | 1020.7 |
| 20260506174500 | 11 | 296 | 6.4 | 12.9 | 0.00 | 0.46 | 0.23 | 62 | 1020.7 |
| 20260506174001 | 11 | 303 | 4.8 | 16.1 | 0.00 | 0.46 | 0.23 | 56 | 1020.7 |
| 20260506173500 | 11 | 228 | 4.8 | 17.7 | 0.00 | 0.46 | 0.23 | 62 | 1020.7 |
| 20260506173000 | 11 | 233 | 3.2 | 17.7 | 0.00 | 0.46 | 0.23 | 55 | 1020.6 |
| 20260506172500 | 11 | 261 | 11.3 | 16.1 | 0.00 | 0.46 | 0.23 | 60 | 1020.6 |
| 20260506171500 | 11 | 249 | 1.6 | 11.3 | 0.00 | 0.46 | 0.23 | 57 | 1020.6 |
| 20260506171000 | 11 | 244 | 3.2 | 8.0 | 0.00 | 0.46 | 0.23 | 61 | 1020.6 |
| 20260506170500 | 11 | 205 | 3.2 | 8.0 | 0.00 | 0.46 | 0.23 | 61 | 1020.6 |
| 20260506170003 | 11 | 234 | 4.8 | 8.0 | 0.00 | 0.46 | 0.23 | 62 | 1020.6 |
| 20260506165500 | 10 | 284 | 0.0 | 11.3 | 0.00 | 0.46 | 0.23 | 63 | 1020.5 |
| 20260506165000 | 11 | 281 | 4.8 | 11.3 | 0.00 | 0.46 | 0.23 | 65 | 1020.4 |
| 20260506164500 | 10 | 296 | 3.2 | 11.3 | 0.00 | 0.46 | 0.23 | 64 | 1020.4 |
| 20260506164000 | 10 | 296 | 3.2 | 11.3 | 0.00 | 0.46 | 0.23 | 63 | 1020.4 |
| 20260506163500 | 11 | 346 | 1.6 | 11.3 | 0.00 | 0.46 | 0.23 | 68 | 1020.3 |
| 20260506163001 | 10 | 277 | 6.4 | 11.3 | 0.00 | 0.46 | 0.23 | 69 | 1020.3 |
| 20260506162501 | 10 | 309 | 6.4 | 9.7 | 0.00 | 0.46 | 0.23 | 67 | 1020.3 |
| 20260506162000 | 10 | 68 | 1.6 | 12.9 | 0.00 | 0.46 | 0.23 | 71 | 1020.4 |
| 20260506161500 | 10 | 279 | 6.4 | 12.9 | 0.00 | 0.46 | 0.23 | 76 | 1020.4 |
| 20260506161000 | 10 | 302 | 1.6 | 9.7 | 0.00 | 0.46 | 0.23 | 73 | 1020.3 |
| 20260506160501 | 9 | 5 | 4.8 | 9.7 | 0.00 | 0.46 | 0.23 | 72 | 1020.4 |
| 20260506160003 | 9 | 290 | 8.0 | 11.3 | 0.00 | 0.46 | 0.23 | 76 | 1020.3 |
| 20260506155500 | 9 | 283 | 6.4 | 8.0 | 0.00 | 0.56 | 0.23 | 72 | 1020.4 |
| 20260506155000 | 9 | 330 | 3.2 | 8.0 | 0.00 | 0.56 | 0.23 | 75 | 1020.3 |
| 20260506154500 | 9 | 273 | 1.6 | 9.7 | 0.00 | 0.56 | 0.23 | 75 | 1020.3 |
| 20260506154000 | 8 | 258 | 4.8 | 9.7 | 0.00 | 0.56 | 0.23 | 74 | 1020.3 |
| 20260506153500 | 8 | 252 | 3.2 | 9.7 | 0.00 | 0.56 | 0.23 | 77 | 1020.4 |
| 20260506152500 | 8 | 267 | 4.8 | 6.4 | 0.00 | 0.56 | 0.23 | 75 | 1020.4 |
| 20260506152000 | 8 | 309 | 0.0 | 8.0 | 0.00 | 0.56 | 0.23 | 74 | 1020.3 |
| 20260506151500 | 8 | 254 | 3.2 | 8.0 | 0.00 | 0.56 | 0.23 | 79 | 1020.3 |
| 20260506151000 | 8 | 289 | 3.2 | 4.8 | 0.00 | 0.56 | 0.23 | 76 | 1020.2 |
| 20260506150003 | 8 | 242 | 1.6 | 9.7 | 0.00 | 0.56 | 0.23 | 80 | 1020.2 |
| 20260506145000 | 8 | 244 | 3.2 | 11.3 | 0.00 | 0.58 | 0.23 | 83 | 1020.2 |
| 20260506144000 | 8 | 263 | 3.2 | 6.4 | 0.00 | 0.58 | 0.23 | 80 | 1020.3 |
| 20260506143500 | 8 | 257 | 3.2 | 6.4 | 0.00 | 0.58 | 0.23 | 83 | 1020.1 |
| 20260506143000 | 7 | 257 | 3.2 | 6.4 | 0.00 | 0.58 | 0.23 | 85 | 1020.1 |
| 20260506142500 | 7 | 265 | 3.2 | 6.4 | 0.00 | 0.58 | 0.23 | 85 | 1020.1 |
| 20260506141501 | 7 | 275 | 6.4 | 8.0 | 0.00 | 0.58 | 0.23 | 87 | 1020.0 |
| 20260506141000 | 7 | 283 | 6.4 | 9.7 | 0.00 | 0.58 | 0.23 | 89 | 1020.1 |
| 20260506140003 | 7 | 257 | 6.4 | 12.9 | 0.00 | 0.58 | 0.23 | 90 | 1020.1 |
| 20260506135500 | 7 | 320 | 3.2 | 12.9 | 0.00 | 0.58 | 0.23 | 91 | 1020.0 |
| 20260506135001 | 7 | 275 | 6.4 | 8.0 | 0.00 | 0.58 | 0.23 | 92 | 1020.0 |
| 20260506134500 | 7 | 273 | 4.8 | 6.4 | 0.00 | 0.58 | 0.23 | 92 | 1020.0 |
| 20260506134000 | 7 | 292 | 1.6 | 6.4 | 0.03 | 0.58 | 0.23 | 93 | 1020.1 |
| 20260506133500 | 7 | 291 | 0.0 | 4.8 | 0.03 | 0.58 | 0.23 | 93 | 1020.0 |
| 20260506133000 | 7 | 289 | 0.0 | 4.8 | 0.03 | 0.58 | 0.23 | 93 | 1019.8 |
| 20260506132500 | 6 | 323 | 0.0 | 4.8 | 0.03 | 0.58 | 0.23 | 93 | 1019.8 |
| 20260506132000 | 6 | 351 | 0.0 | 4.8 | 0.03 | 0.58 | 0.23 | 93 | 1019.8 |
| 20260506131501 | 6 | 327 | 0.0 | 4.8 | 0.03 | 0.58 | 0.23 | 93 | 1019.8 |
| 20260506131001 | 6 | 302 | 3.2 | 6.4 | 0.03 | 0.58 | 0.23 | 94 | 1019.7 |
| 20260506130500 | 6 | 313 | 6.4 | 6.4 | 0.03 | 0.58 | 0.23 | 94 | 1019.7 |
| 20260506130002 | 6 | 285 | 0.0 | 6.4 | 0.03 | 0.58 | 0.23 | 94 | 1019.6 |
| 20260506125459 | 6 | 355 | 3.2 | 8.0 | 0.03 | 0.58 | 0.23 | 94 | 1019.6 |
| 20260506124959 | 6 | 338 | 3.2 | 8.0 | 0.03 | 0.58 | 0.23 | 94 | 1019.5 |
| 20260506124459 | 6 | 349 | 4.8 | 8.0 | 0.00 | 0.56 | 0.20 | 94 | 1019.5 |
| 20260506123959 | 6 | 355 | 3.2 | 8.0 | 0.03 | 0.56 | 0.20 | 93 | 1019.4 |
| 20260506123459 | 6 | 355 | 4.8 | 8.0 | 0.03 | 0.56 | 0.20 | 94 | 1019.3 |
| 20260506123000 | 6 | 346 | 1.6 | 8.0 | 0.03 | 0.56 | 0.20 | 94 | 1019.2 |
| 20260506122459 | 6 | 336 | 4.8 | 6.4 | 0.03 | 0.56 | 0.20 | 94 | 1019.1 |
| 20260506121959 | 6 | 5 | 1.6 | 6.4 | 0.03 | 0.56 | 0.20 | 94 | 1019.0 |
| 20260506120959 | 6 | 348 | 1.6 | 4.8 | 0.03 | 0.56 | 0.20 | 94 | 1018.8 |
| 20260506120459 | 6 | 348 | 1.6 | 3.2 | 0.03 | 0.56 | 0.20 | 94 | 1018.7 |
| 20260506120003 | 6 | 348 | 0.0 | 3.2 | 0.03 | 0.56 | 0.20 | 94 | 1018.6 |
| 20260506115500 | 6 | 348 | 0.0 | 3.2 | 0.03 | 0.64 | 0.20 | 94 | 1018.4 |
| 20260506114500 | 6 | 348 | 1.6 | 3.2 | 0.03 | 0.64 | 0.20 | 94 | 1018.2 |